STARLINK-3957 (52562 NORAD) Tracking and Keplerian Element Data
This shows tracking and keplerian element data for the satellite.
Feedback or suggestion? Click here.
Element | Value |
Catalog | 52562 |
Name | STARLINK-3957 |
Epoch Orbit | 130 |
Epoch Day | 167.08334491 |
Epoch Year | 2022 |
RAAN | 128.995 |
Inclination | 53.2164 |
Eccentricity | 0.0002822 |
Argument of Perigee | 16.2238 |
Mean Anonmoly | 50.6515 |
Mean Motion | 15.73213425 |
Decay Rate | 0.00026572 |
L1 | 1 52562U 22051AF 22167.08334491 .00026572 00000+0 19302-3 0 9999 |
L2 | 2 52562 53.2164 128.9950 0002822 16.2238 50.6515 15.73213425 1302 |
Live tracking and technical data element details for STARLINK-3957 (NORAD 52562). STARLINK-3957 can be tracked NOW for your location showing map with azimuth and elevation plus other details from your city location.
Track the satellite on the map from your city or location and see movement details for azimuth, elevation, latitude, longitude, range, height, and movement on the map or in text.
IsCatalogInMostPopularTable: catalog: 52562, numindb: 3
Update: records affected: 1
GetName: 52562 STARLINK-3957
Hit Count: updated at: Mon, 27 Jun 2022 05:28:48 GMT